Location: Moscow
(30.9132°N, 94.8252°W)
Time: 08:25:22
(UTC+00:00)

Cosmos 1624 Rocket - Pass Details

Date: 15 November 2025
Orbit: 752 x 779 km, 74.0° (Epoch: 13 December)

Event Time Altitude Azimuth Distance (km) Brightness Sun altitude
Exits shadow 11:15:03 36° 256° (WSW) 1,178 4.5 -19.6°
Maximum altitude 11:16:15 42° 290° (WNW) 1,067 4.2 -19.4°
Drops below altitude 10° 11:21:08 10° 1° (N) 2,278 6.3 -18.4°
Sets 11:23:37 0° 8° (N) 3,206 7.2 -17.8°
